TimeMST,TemperatureF,Dew PointF,Humidity,Sea Level PressureIn,VisibilityMPH,Wind Direction,Wind SpeedMPH,Gust SpeedMPH,PrecipitationIn,Events,Conditions,WindDirDegrees,DateUTC
12:53 AM,41.0,-0.0,18,29.97,10.0,North,15.0,-,N/A,,Clear,350,2013-02-27 07:53:00
1:53 AM,39.9,-0.9,18,30.02,10.0,North,13.8,24.2,N/A,,Clear,350,2013-02-27 08:53:00
2:53 AM,37.0,6.1,28,30.04,10.0,NNW,12.7,-,N/A,,Clear,340,2013-02-27 09:53:00
3:53 AM,34.0,8.1,34,30.07,10.0,North,8.1,-,N/A,,Clear,350,2013-02-27 10:53:00
4:53 AM,32.0,7.0,35,30.11,10.0,West,3.5,-,N/A,,Clear,280,2013-02-27 11:53:00
5:53 AM,30.9,7.0,37,30.15,10.0,WSW,5.8,-,N/A,,Clear,250,2013-02-27 12:53:00
6:53 AM,32.0,7.0,35,30.20,10.0,WNW,3.5,-,N/A,,Clear,290,2013-02-27 13:53:00
7:53 AM,39.2,12.2,33,30.27,10.0,NNW,10.4,19.6,N/A,,Clear,340,2013-02-27 14:53:00
8:53 AM,43.0,16.0,34,30.25,10.0,North,15.0,-,N/A,,Clear,350,2013-02-27 15:53:00
9:53 AM,46.0,16.0,30,30.26,10.0,NNW,17.3,24.2,N/A,,Clear,340,2013-02-27 16:53:00
10:53 AM,48.0,15.1,27,30.25,10.0,NNE,13.8,-,N/A,,Clear,20,2013-02-27 17:53:00
11:53 AM,48.9,15.1,26,30.23,10.0,North,11.5,19.6,N/A,,Clear,360,2013-02-27 18:53:00
12:53 PM,51.1,14.0,23,30.20,10.0,NNW,13.8,-,N/A,,Clear,340,2013-02-27 19:53:00
1:53 PM,53.1,12.0,20,30.17,10.0,North,10.4,-,N/A,,Clear,350,2013-02-27 20:53:00
2:53 PM,53.1,10.9,19,30.16,10.0,North,9.2,-,N/A,,Clear,360,2013-02-27 21:53:00
3:53 PM,54.0,10.9,18,30.17,10.0,NNE,8.1,-,N/A,,Clear,30,2013-02-27 22:53:00
4:53 PM,52.0,10.0,19,30.17,10.0,East,3.5,-,N/A,,Clear,90,2013-02-27 23:53:00
5:53 PM,48.9,9.0,20,30.19,10.0,NE,4.6,-,N/A,,Clear,40,2013-02-28 00:53:00
6:53 PM,44.1,10.0,25,30.22,10.0,ENE,5.8,-,N/A,,Clear,70,2013-02-28 01:53:00
7:53 PM,41.0,10.9,29,30.22,10.0,East,5.8,-,N/A,,Clear,80,2013-02-28 02:53:00
8:53 PM,39.9,12.9,33,30.23,10.0,ENE,3.5,-,N/A,,Clear,70,2013-02-28 03:53:00
9:53 PM,34.0,12.9,42,30.26,10.0,Calm,Calm,-,N/A,,Clear,0,2013-02-28 04:53:00
10:53 PM,33.8,15.8,48,30.28,10.0,Calm,Calm,-,N/A,,Clear,0,2013-02-28 05:53:00
11:53 PM,28.4,15.8,59,30.28,10.0,SW,6.9,-,N/A,,Clear,220,2013-02-28 06:53:00